Location: Boiro
(42.6475°N, 8.8834°W)
Time: 17:48:19
(UTC+01:00)

Transit 2A Rocket - Pass Details

Date: 30 November 2021
Orbit: 584 x 918 km, 66.7° (Epoch: 19 January)

Event Time Altitude Azimuth Distance (km) Brightness Sun altitude
Rises 17:08:27 0° 335° (NNW) 3,565 8.3 7.5°
Reaches altitude 10° 17:11:42 10° 352° (N) 2,615 7.5 7.0°
Maximum altitude 17:16:12 21° 39° (NE) 1,925 6.6 6.4°
Drops below altitude 10° 17:20:35 10° 87° (E) 2,534 7.2 5.8°
Sets 17:23:39 0° 103° (ESE) 3,421 8.0 5.3°
